Location: Marsån
(66.4167°N, 22.2833°E)
Time: 10:35:06
(UTC+00:00)

Cosmos 1340 Rocket - Pass Details

Date: 24 February 2024
Orbit: 509 x 544 km, 81.2° (Epoch: 15 April)

Event Time Altitude Azimuth Distance (km) Brightness Sun altitude
Rises 19:36:50 0° 338° (NNW) 2,668 7.3 -24.8°
Reaches altitude 10° 19:39:01 10° 335° (NNW) 1,769 6.2 -25.0°
Enters shadow 19:42:16 53° 297° (WNW) 647 3.4 -25.3°
